Flag for Canada Weather past 2 weeks in Corner Brook, Newfoundland and Labrador, Canada

Now
52 °F

Partly sunny.


Feels Like: 46 °F
Forecast: 46 / 63 °F
Wind: 18 mph from Southwest

Location: Deer Lake

Current Time: Sep 23, 2014 at 9:05:35 AM

Latest Report: Sep 23, 2014 at 8:30 AM


Visibility: 15 mi

Pressure: 29.64 "Hg

Humidity: 77%

Dew point: 45 °F

Location of Corner BrookLocation

Historic Weather in Corner Brook — Graph

°F

Corner Brook temperature yesterday

Maximum temperature yesterday: 73 °F (at 3:30 PM)
Minimum temperature yesterday: 55 °F (at 2:17 AM)
Average temperature yesterday: 65 °F

Past Weeks' High & Low Weather Summary

 TemperatureHumidityPressure
High73 °F (Sep 22, 3:30 PM)100% (Sep 8, 11:30 PM)30.49 "Hg (Sep 8, 11:30 PM)
Low34 °F (Sep 14, 12:30 AM)38% (Sep 10, 4:30 PM)29.32 "Hg (Sep 22, 2:30 PM)
Average54 °F78%30.00 "Hg
* Reported Sep 8 7:30 AM — Sep 23 7:30 AM, Corner Brook, Weather by CustomWeather, © 2014

Note: Actual official high and low records may vary slightly from our data, if they occured in-between our weather recording intervals... More about our weather records

Advertising

Corner Brook weather history for previous 24 hours

 ConditionsComfort  
Time TempWeatherWind HumidityBarometerVisibility
7:30 AM
Sep 23
54 °FPassing clouds.21 mph77%29.61 "Hg15 mi
6:30 AM54 °FPassing clouds.22 mph88%29.58 "Hg15 mi
5:30 AM59 °FPassing clouds.32 mph72%29.54 "Hg15 mi
4:30 AM61 °FPassing clouds.26 mph72%29.52 "Hg15 mi
3:30 AM63 °FPassing clouds.31 mph68%29.51 "Hg15 mi
2:30 AM64 °FPassing clouds.24 mph78%29.48 "Hg15 mi
1:30 AM66 °FPassing clouds.26 mph78%29.46 "Hg15 mi
12:30 AM66 °FPassing clouds.14 mph78%29.46 "Hg15 mi
11:30 PM
Sep 22
68 °FPassing clouds.22 mph78%29.46 "Hg15 mi
10:30 PM64 °FPassing clouds.12 mph94%29.45 "Hg15 mi
9:30 PM66 °FPassing clouds.13 mph88%29.46 "Hg15 mi
8:30 PM66 °FPassing clouds.17 mph88%29.46 "Hg10 mi
7:30 PM68 °FBroken clouds.9 mph88%29.44 "Hg12 mi
6:30 PM68 °FBroken clouds.16 mph88%29.41 "Hg12 mi
5:30 PM72 °FPartly sunny.24 mph83%29.37 "Hg12 mi
5:19 PM72 °FPartly sunny.15 mph83%29.37 "Hg12 mi
4:30 PM72 °FLight rain. Partly sunny.10 mph88%29.34 "Hg12 mi
3:30 PM73 °FLight rain. Overcast.28 mph83%29.32 "Hg10 mi
2:30 PM70 °FLight rain. More clouds than sun.22 mph94%29.32 "Hg6 mi
1:30 PM70 °FLight rain. Mostly cloudy.24 mph88%29.39 "Hg6 mi
12:30 PM68 °FLight rain. Mostly cloudy.24 mph94%29.44 "Hg8 mi
11:30 AM66 °FLight rain. Mostly cloudy.15 mph94%29.52 "Hg8 mi
10:30 AM66 °FLight rain. Mostly cloudy.15 mph88%29.59 "Hg8 mi
9:30 AM66 °FLight rain. Mostly cloudy.16 mph88%29.65 "Hg8 mi
Weather by CustomWeather, © 2014

See weather overviewHow to use our weather pages